This is the latest recevied weather packets stored in our database for station/object SQ6ELQ-11. If no packets are shown the sender has not sent any weather packets the latest 10 day(s).
| Time | Temp. | Humidity | Pressure | Rain* | Wind** | Luminosity | Snow |
|---|---|---|---|---|---|---|---|
| 1778111175 | 10.56° C | 82% | 1008 hPa | 0 mm | - | - | - |
| 1778110032 | 10.56° C | 81% | 1008.2 hPa | 0 mm | - | - | - |
| 1778109017 | 10.56° C | 82% | 1008.2 hPa | 0 mm | - | - | - |
| 1778107891 | 10.56° C | 81% | 1008 hPa | 0 mm | - | - | - |
| 1778106816 | 10.56° C | 81% | 1007.8 hPa | 0 mm | - | - | - |
| 1778105702 | 11.11° C | 81% | 1007.9 hPa | 0 mm | - | - | - |
| 1778104668 | 11.11° C | 81% | 1007.7 hPa | 0 mm | - | - | - |
| 1778103612 | 11.11° C | 80% | 1007.9 hPa | 0 mm | - | - | - |
| 1778102517 | 11.11° C | 77% | 1007.6 hPa | 0 mm | - | - | - |
| 1778101472 | 11.11° C | 75% | 1007.4 hPa | 0 mm | - | - | - |
| 1778100428 | 10.56° C | 77% | 1007.3 hPa | 0 mm | - | - | - |
| 1778099411 | 11.11° C | 77% | 1007.1 hPa | 0 mm | - | - | - |
| 1778098362 | 11.11° C | 78% | 1006.9 hPa | 0 mm | - | - | - |
| 1778097261 | 11.11° C | 79% | 1007 hPa | 0 mm | - | - | - |
| 1778096207 | 11.11° C | 76% | 1007.3 hPa | 0 mm | - | - | - |
| 1778095124 | 11.11° C | 75% | 1007.1 hPa | 0 mm | - | - | - |
| 1778093981 | 11.11° C | 73% | 1007.9 hPa | 0 mm | - | - | - |
| 1778092896 | 11.11° C | 73% | 1007.4 hPa | 0 mm | - | - | - |
| 1778091802 | 11.67° C | 74% | 1006.7 hPa | 0 mm | - | - | - |
| 1778090757 | 12.78° C | 75% | 1006.8 hPa | 0 mm | - | - | - |
| 1778089665 | 13.33° C | 74% | 1007.2 hPa | 0 mm | - | - | - |
| 1778088621 | 13.89° C | 74% | 1007.1 hPa | 0 mm | - | - | - |
| 1778087622 | 15° C | 63% | 1006.5 hPa | 0 mm | - | - | - |
| 1778086466 | 15° C | 60% | 1006.1 hPa | 0 mm | - | - | - |
| 1778085407 | 15.56° C | 59% | 1006.4 hPa | 0 mm | - | - | - |
* Rain latest hour (hover to see other rain measurements)
** Current wind speed in m/s (hover to see current wind gust speed)